Starlink 33813

operational
NORAD ID: 63585 Int'l Des: 2025-076 Owner: SPXS Country: US Constellation: starlink
LEOCIRCULAR

关于 Starlink 33813

正在加载描述...

实时位置

正在加载3D地球...

即将过境

高度历史

Altitude vs Time

uPlot chart will show altitude changes over time

两行轨道根数

1 63585U 25076S 25258.37736746 .00059159 00000-0 21395-2 0 9993
2 63585 43.0005 231.3342 0000929 275.6192 84.4554 15.27619874 25020
Epoch: Sep 15, 2025 • Age: 15 hours

当前状态

高度 482.9 km
速度 7.63 km/s
星下点 -2.67°S, 55.77°E
发射日期 Apr 14, 2025
运行时间 0.4 years
类型 internet

技术详情

分类 Payload
质量 575.00 kg
干质量 530.00 kg
总质量 575.00 kg
长度 0.30 m
直径 4.10 m
跨度 29.00 m
形状 Box + pan
制造商 SPXS
平台类型 Starlink V2MO
阶段状态 In Orbit
所有者/国家 SPXS/US

大型星座

Loading constellations...